Back to catalog

FENGYUN 1C DEB

AliveSSO
NORAD 31922·DEBRIS·🇨🇳 China

Launched May 10, 1999 from Taiyuan Satellite Launch Center

Loading…

Next Passes (next 24 hours)

TLE

FreshSource: Space-Track

Epoch: Sep 14, 2026, 10:46 UTC

1 31922U 99025CLZ 26257.44902042  .00001431  00000-0  11245-2 0  9993
2 31922  98.8263 238.3790 0159871 356.7558 154.2776 13.87623124968391

Track FENGYUN 1C DEB in real time with AllMySat

Download on the App Store